owner,sensor,date,latitude,longitude,vertical_datum,direction_of_sea_water_velocity,sea_water_speed,upward_sea_water_velocity,qcFlag 
ADCP,ioos:station:wmo:42890:1,2014-06-01T00:02:00Z,27.6250,-90.4410,15.2,101.0,30.2,-9999.0,'11111222,11111222,99999999' 
ADCP,ioos:station:wmo:42890:1,2014-06-01T00:22:00Z,27.6250,-90.4410,15.2,107.0,27.2,-9999.0,'11111222,11111222,99999999' 
ADCP,ioos:station:wmo:42890:1,2014-06-01T00:42:00Z,27.6250,-90.4410,15.2,109.0,24.7,-9999.0,'11111222,11111222,99999999' 
ADCP,ioos:station:wmo:42890:1,2014-06-01T01:02:00Z,27.6250,-90.4410,15.2,110.0,21.7,-9999.0,'11111222,11111222,99999999' 
ADCP,ioos:station:wmo:42890:1,2014-06-01T01:22:00Z,27.6250,-90.4410,15.2,110.0,22.7,-9999.0,'11111222,11111222,99999999' 
ADCP,ioos:station:wmo:42890:1,2014-06-01T01:42:00Z,27.6250,-90.4410,15.2,110.0,21.8,-99999.0,'1111122,1111122,1199999999' 
ADCP,ioos:station:wmo:42890:1,2014-06-01T02:02:00Z,27.6250,-90.4410,15.2,115.0,17.7,-9999.0,'11111222,11111222,99999999' 
ADCP,ioos:station:wmo:42890:1,2014-06-01T02:22:00Z,27.6250,-90.4410,15.2,126.0,18.0,-9999.0,'11111222,11111222,99999999' 
ADCP,ioos:station:wmo:42890:1,2014-06-01T02:42:00Z,27.6250,-90.4410,15.2,131.0,17.1,-99999.0,'1111122,1111122,1199999999' 
ADCP,ioos:station:wmo:42890:1,2014-06-01T03:02:00Z,27.6250,-90.4410,15.2,132.0,15.5,-9999.0,'11111222,11111222,99999999' 
ADCP,ioos:station:wmo:42890:1,2014-06-01T03:22:00Z,27.6250,-90.4410,15.2,128.0,14.0,-9999.0,'11111222,11111222,99999999' 
ADCP,ioos:station:wmo:42890:1,2014-06-01T03:42:00Z,27.6250,-90.4410,15.2,124.0,13.9,-99999.0,'1111122,1111122,1199999999' 
ADCP,ioos:station:wmo:42890:1,2014-06-01T04:02:00Z,27.6250,-90.4410,15.2,108.0,16.2,-99999.0,'1111122,1111122,1199999999' 
ADCP,ioos:station:wmo:42890:1,2014-06-01T04:22:00Z,27.6250,-90.4410,15.2,105.0,17.7,-9999.0,'11111222,11111222,99999999' 
ADCP,ioos:station:wmo:42890:1,2014-06-01T04:42:00Z,27.6250,-90.4410,15.2,91.0,17.5,-9999.0,'11111222,11111222,99999999' 
ADCP,ioos:station:wmo:42890:1,2014-06-01T05:02:00Z,27.6250,-90.4410,15.2,83.0,24.5,-9999.0,'11111222,11111222,99999999' 
ADCP,ioos:station:wmo:42890:1,2014-06-01T05:22:00Z,27.6250,-90.4410,15.2,81.0,27.0,-9999.0,'11111222,11111222,99999999' 
ADCP,ioos:station:wmo:42890:1,2014-06-01T05:42:00Z,27.6250,-90.4410,15.2,82.0,30.4,-99999.0,'1111122,1111122,1199999999' 
ADCP,ioos:station:wmo:42890:1,2014-06-01T06:02:00Z,27.6250,-90.4410,15.2,83.0,30.0,-9999.0,'11111222,11111222,99999999' 
ADCP,ioos:station:wmo:42890:1,2014-06-01T06:22:00Z,27.6250,-90.4410,15.2,79.0,34.2,-9999.0,'11111222,11111222,99999999' 
ADCP,ioos:station:wmo:42890:1,2014-06-01T06:42:00Z,27.6250,-90.4410,15.2,81.0,31.1,-99999.0,'1111122,1111122,1199999999' 
ADCP,ioos:station:wmo:42890:1,2014-06-01T07:02:00Z,27.6250,-90.4410,15.2,76.0,31.8,-9999.0,'11111222,11111222,99999999' 
ADCP,ioos:station:wmo:42890:1,2014-06-01T07:22:00Z,27.6250,-90.4410,15.2,72.0,38.6,-9999.0,'11111222,11111222,99999999' 
ADCP,ioos:station:wmo:42890:1,2014-06-01T07:42:00Z,27.6250,-90.4410,15.2,63.0,45.6,-99999.0,'1111122,1111122,1199999999' 
ADCP,ioos:station:wmo:42890:1,2014-06-01T08:02:00Z,27.6250,-90.4410,15.2,57.0,52.7,-9999.0,'11111222,11111222,99999999' 
ADCP,ioos:station:wmo:42890:1,2014-06-01T08:22:00Z,27.6250,-90.4410,15.2,58.0,47.7,-9999.0,'11111222,11111222,99999999' 
ADCP,ioos:station:wmo:42890:1,2014-06-01T08:42:00Z,27.6250,-90.4410,15.2,59.0,46.9,-99999.0,'1111122,1111122,1199999999' 
ADCP,ioos:station:wmo:42890:1,2014-06-01T09:02:00Z,27.6250,-90.4410,15.2,64.0,41.8,-9999.0,'11111222,11111222,99999999' 
ADCP,ioos:station:wmo:42890:1,2014-06-01T09:22:00Z,27.6250,-90.4410,15.2,65.0,44.8,-9999.0,'11111222,11111222,99999999' 
ADCP,ioos:station:wmo:42890:1,2014-06-01T09:42:00Z,27.6250,-90.4410,15.2,63.0,31.6,-99999.0,'1111122,1111122,1199999999' 
ADCP,ioos:station:wmo:42890:1,2014-06-01T10:02:00Z,27.6250,-90.4410,15.2,53.0,23.9,-9999.0,'11111222,11111222,99999999' 
ADCP,ioos:station:wmo:42890:1,2014-06-01T10:22:00Z,27.6250,-90.4410,15.2,51.0,23.5,-9999.0,'11111222,11111222,99999999' 
ADCP,ioos:station:wmo:42890:1,2014-06-01T10:42:00Z,27.6250,-90.4410,15.2,43.0,20.1,-99999.0,'1111122,1111122,1199999999' 
ADCP,ioos:station:wmo:42890:1,2014-06-01T11:02:00Z,27.6250,-90.4410,15.2,62.0,39.6,-9999.0,'11111222,11111222,99999999' 
ADCP,ioos:station:wmo:42890:1,2014-06-01T11:22:00Z,27.6250,-90.4410,15.2,52.0,20.9,-9999.0,'11111222,11111222,99999999' 
ADCP,ioos:station:wmo:42890:1,2014-06-01T11:42:00Z,27.6250,-90.4410,15.2,64.0,28.7,-99999.0,'1111122,1111122,1199999999' 
ADCP,ioos:station:wmo:42890:1,2014-06-01T12:02:00Z,27.6250,-90.4410,15.2,54.0,23.4,-9999.0,'11111222,11111222,99999999' 
ADCP,ioos:station:wmo:42890:1,2014-06-01T12:22:00Z,27.6250,-90.4410,15.2,57.0,29.2,-9999.0,'11111222,11111222,99999999' 
ADCP,ioos:station:wmo:42890:1,2014-06-01T12:42:00Z,27.6250,-90.4410,15.2,55.0,32.6,-99999.0,'1111122,1111122,1199999999' 
ADCP,ioos:station:wmo:42890:1,2014-06-01T13:02:00Z,27.6250,-90.4410,15.2,58.0,29.4,-9999.0,'11111222,11111222,99999999' 
ADCP,ioos:station:wmo:42890:1,2014-06-01T13:22:00Z,27.6250,-90.4410,15.2,62.0,29.2,-9999.0,'11111222,11111222,99999999' 
ADCP,ioos:station:wmo:42890:1,2014-06-01T13:42:00Z,27.6250,-90.4410,15.2,63.0,31.1,-99999.0,'1111122,1111122,1199999999' 
ADCP,ioos:station:wmo:42890:1,2014-06-01T14:02:00Z,27.6250,-90.4410,15.2,64.0,31.1,-9999.0,'11111222,11111222,99999999' 
ADCP,ioos:station:wmo:42890:1,2014-06-01T14:22:00Z,27.6250,-90.4410,15.2,63.0,28.0,-9999.0,'11111222,11111222,99999999' 
ADCP,ioos:station:wmo:42890:1,2014-06-01T14:42:00Z,27.6250,-90.4410,15.2,68.0,25.7,-99999.0,'1111122,1111122,1199999999' 
ADCP,ioos:station:wmo:42890:1,2014-06-01T15:02:00Z,27.6250,-90.4410,15.2,72.0,24.4,-9999.0,'11111222,11111222,99999999' 
ADCP,ioos:station:wmo:42890:1,2014-06-01T15:22:00Z,27.6250,-90.4410,15.2,75.0,23.7,-9999.0,'11111222,11111222,99999999' 
ADCP,ioos:station:wmo:42890:1,2014-06-01T15:42:00Z,27.6250,-90.4410,15.2,81.0,21.8,-99999.0,'1111122,1111122,1199999999' 
ADCP,ioos:station:wmo:42890:1,2014-06-01T16:02:00Z,27.6250,-90.4410,15.2,88.0,20.0,-9999.0,'11111222,11111222,99999999' 
ADCP,ioos:station:wmo:42890:1,2014-06-01T16:22:00Z,27.6250,-90.4410,15.2,90.0,20.0,-9999.0,'11111222,11111222,99999999' 
ADCP,ioos:station:wmo:42890:1,2014-06-01T16:42:00Z,27.6250,-90.4410,15.2,96.0,19.8,-99999.0,'1111122,1111122,1199999999' 
ADCP,ioos:station:wmo:42890:1,2014-06-01T17:02:00Z,27.6250,-90.4410,15.2,99.0,19.8,-9999.0,'11111222,11111222,99999999' 
ADCP,ioos:station:wmo:42890:1,2014-06-01T17:22:00Z,27.6250,-90.4410,15.2,105.0,17.5,-9999.0,'11111222,11111222,99999999' 
ADCP,ioos:station:wmo:42890:1,2014-06-01T17:42:00Z,27.6250,-90.4410,15.2,109.0,18.6,-99999.0,'1111122,1111122,1199999999' 
ADCP,ioos:station:wmo:42890:1,2014-06-01T18:02:00Z,27.6250,-90.4410,15.2,106.0,18.4,-9999.0,'11111222,11111222,99999999' 
ADCP,ioos:station:wmo:42890:1,2014-06-01T18:22:00Z,27.6250,-90.4410,15.2,109.0,16.7,-9999.0,'11111222,11111222,99999999' 
ADCP,ioos:station:wmo:42890:1,2014-06-01T18:42:00Z,27.6250,-90.4410,15.2,98.0,17.1,-99999.0,'1111122,1111122,1199999999' 
ADCP,ioos:station:wmo:42890:1,2014-06-01T19:02:00Z,27.6250,-90.4410,15.2,91.0,17.1,-9999.0,'11111222,11111222,99999999' 
ADCP,ioos:station:wmo:42890:1,2014-06-01T19:22:00Z,27.6250,-90.4410,15.2,88.0,18.1,-9999.0,'11111222,11111222,99999999' 
ADCP,ioos:station:wmo:42890:1,2014-06-01T19:42:00Z,27.6250,-90.4410,15.2,81.0,19.2,-99999.0,'1111122,1111122,1199999999' 
ADCP,ioos:station:wmo:42890:1,2014-06-01T20:02:00Z,27.6250,-90.4410,15.2,70.0,20.2,-9999.0,'11111222,11111222,99999999' 
ADCP,ioos:station:wmo:42890:1,2014-06-01T20:22:00Z,27.6250,-90.4410,15.2,72.0,17.9,-9999.0,'11111222,11111222,99999999' 
ADCP,ioos:station:wmo:42890:1,2014-06-01T20:42:00Z,27.6250,-90.4410,15.2,68.0,17.7,-99999.0,'1111122,1111122,1199999999' 
ADCP,ioos:station:wmo:42890:1,2014-06-01T21:02:00Z,27.6250,-90.4410,15.2,62.0,17.3,-9999.0,'11111222,11111222,99999999' 
ADCP,ioos:station:wmo:42890:1,2014-06-01T21:22:00Z,27.6250,-90.4410,15.2,53.0,15.9,-9999.0,'11111222,11111222,99999999' 
ADCP,ioos:station:wmo:42890:1,2014-06-01T21:42:00Z,27.6250,-90.4410,15.2,62.0,15.3,-99999.0,'1111122,1111122,1199999999' 
ADCP,ioos:station:wmo:42890:1,2014-06-01T22:02:00Z,27.6250,-90.4410,15.2,64.0,14.9,-9999.0,'11111222,11111222,99999999' 
ADCP,ioos:station:wmo:42890:1,2014-06-01T22:22:00Z,27.6250,-90.4410,15.2,56.0,12.2,-9999.0,'11111222,11111222,99999999' 
ADCP,ioos:station:wmo:42890:1,2014-06-01T22:42:00Z,27.6250,-90.4410,15.2,61.0,13.7,-9999.0,'11111222,11111222,99999999' 
ADCP,ioos:station:wmo:42890:1,2014-06-01T23:02:00Z,27.6250,-90.4410,15.2,67.0,11.7,-9999.0,'11111222,11111222,99999999' 
ADCP,ioos:station:wmo:42890:1,2014-06-01T23:22:00Z,27.6250,-90.4410,15.2,66.0,12.0,-9999.0,'11111222,11111222,99999999' 
ADCP,ioos:station:wmo:42890:1,2014-06-01T23:42:00Z,27.6250,-90.4410,15.2,64.0,12.4,-99999.0,'1111122,1111122,1199999999' 
ADCP,ioos:station:wmo:42890:1,2014-06-02T00:02:00Z,27.6250,-90.4410,15.2,68.0,12.8,-9999.0,'11111222,11111222,99999999' 
ADCP,ioos:station:wmo:42890:1,2014-06-02T00:22:00Z,27.6250,-90.4410,15.2,60.0,13.3,-9999.0,'11111222,11111222,99999999' 
ADCP,ioos:station:wmo:42890:1,2014-06-02T00:42:00Z,27.6250,-90.4410,15.2,55.0,15.3,-99999.0,'1111122,1111122,1199999999' 
ADCP,ioos:station:wmo:42890:1,2014-06-02T01:02:00Z,27.6250,-90.4410,15.2,56.0,14.5,-9999.0,'11111222,11111222,99999999' 
ADCP,ioos:station:wmo:42890:1,2014-06-02T01:22:00Z,27.6250,-90.4410,15.2,56.0,16.6,-9999.0,'11111222,11111222,99999999' 
ADCP,ioos:station:wmo:42890:1,2014-06-02T01:42:00Z,27.6250,-90.4410,15.2,58.0,16.3,-99999.0,'1111122,1111122,1199999999' 
ADCP,ioos:station:wmo:42890:1,2014-06-02T02:02:00Z,27.6250,-90.4410,15.2,60.0,17.5,-9999.0,'11111222,11111222,99999999' 
ADCP,ioos:station:wmo:42890:1,2014-06-02T02:22:00Z,27.6250,-90.4410,15.2,55.0,19.7,-9999.0,'11111222,11111222,99999999' 
ADCP,ioos:station:wmo:42890:1,2014-06-02T02:42:00Z,27.6250,-90.4410,15.2,54.0,19.0,-99999.0,'1111122,1111122,1199999999' 
ADCP,ioos:station:wmo:42890:1,2014-06-02T03:02:00Z,27.6250,-90.4410,15.2,50.0,19.3,-9999.0,'11111222,11111222,99999999' 
ADCP,ioos:station:wmo:42890:1,2014-06-02T03:22:00Z,27.6250,-90.4410,15.2,51.0,22.6,-9999.0,'11111222,11111222,99999999' 
ADCP,ioos:station:wmo:42890:1,2014-06-02T03:42:00Z,27.6250,-90.4410,15.2,54.0,23.6,-99999.0,'1111122,1111122,1199999999' 
ADCP,ioos:station:wmo:42890:1,2014-06-02T04:02:00Z,27.6250,-90.4410,15.2,52.0,20.7,-9999.0,'11111222,11111222,99999999' 
ADCP,ioos:station:wmo:42890:1,2014-06-02T04:22:00Z,27.6250,-90.4410,15.2,54.0,21.5,-9999.0,'11111222,11111222,99999999' 
ADCP,ioos:station:wmo:42890:1,2014-06-02T04:42:00Z,27.6250,-90.4410,15.2,55.0,21.9,-99999.0,'1111122,1111122,1199999999' 
ADCP,ioos:station:wmo:42890:1,2014-06-02T05:02:00Z,27.6250,-90.4410,15.2,54.0,26.6,-9999.0,'11111222,11111222,99999999' 
ADCP,ioos:station:wmo:42890:1,2014-06-02T05:22:00Z,27.6250,-90.4410,15.2,50.0,28.8,-9999.0,'11111222,11111222,99999999' 
ADCP,ioos:station:wmo:42890:1,2014-06-02T05:42:00Z,27.6250,-90.4410,15.2,50.0,27.2,-99999.0,'1111122,1111122,1199999999' 
ADCP,ioos:station:wmo:42890:1,2014-06-02T06:02:00Z,27.6250,-90.4410,15.2,57.0,26.1,-9999.0,'11111222,11111222,99999999' 
ADCP,ioos:station:wmo:42890:1,2014-06-02T06:22:00Z,27.6250,-90.4410,15.2,52.0,22.3,-9999.0,'11111222,11111222,99999999' 
ADCP,ioos:station:wmo:42890:1,2014-06-02T06:42:00Z,27.6250,-90.4410,15.2,54.0,19.6,-99999.0,'1111122,1111122,1199999999' 
ADCP,ioos:station:wmo:42890:1,2014-06-02T07:02:00Z,27.6250,-90.4410,15.2,51.0,18.4,-9999.0,'11111222,11111222,99999999' 
ADCP,ioos:station:wmo:42890:1,2014-06-02T07:22:00Z,27.6250,-90.4410,15.2,51.0,20.3,-9999.0,'11111222,11111222,99999999' 
ADCP,ioos:station:wmo:42890:1,2014-06-02T07:42:00Z,27.6250,-90.4410,15.2,46.0,18.7,-99999.0,'1111122,1111122,1199999999' 
ADCP,ioos:station:wmo:42890:1,2014-06-02T08:02:00Z,27.6250,-90.4410,15.2,46.0,19.2,-9999.0,'11111222,11111222,99999999' 
ADCP,ioos:station:wmo:42890:1,2014-06-02T08:22:00Z,27.6250,-90.4410,15.2,47.0,20.7,-9999.0,'11111222,11111222,99999999' 
ADCP,ioos:station:wmo:42890:1,2014-06-02T08:42:00Z,27.6250,-90.4410,15.2,48.0,21.0,-99999.0,'1111122,1111122,1199999999' 
ADCP,ioos:station:wmo:42890:1,2014-06-02T09:02:00Z,27.6250,-90.4410,15.2,47.0,19.9,-9999.0,'11111222,11111222,99999999' 
ADCP,ioos:station:wmo:42890:1,2014-06-02T09:22:00Z,27.6250,-90.4410,15.2,43.0,20.8,-9999.0,'11111222,11111222,99999999' 
ADCP,ioos:station:wmo:42890:1,2014-06-02T09:42:00Z,27.6250,-90.4410,15.2,42.0,20.5,-99999.0,'1111122,1111122,1199999999' 
ADCP,ioos:station:wmo:42890:1,2014-06-02T10:02:00Z,27.6250,-90.4410,15.2,48.0,20.1,-9999.0,'11111222,11111222,99999999' 
ADCP,ioos:station:wmo:42890:1,2014-06-02T10:22:00Z,27.6250,-90.4410,15.2,50.0,18.9,-9999.0,'11111222,11111222,99999999' 
ADCP,ioos:station:wmo:42890:1,2014-06-02T10:42:00Z,27.6250,-90.4410,15.2,55.0,17.4,-99999.0,'1111122,1111122,1199999999' 
ADCP,ioos:station:wmo:42890:1,2014-06-02T11:02:00Z,27.6250,-90.4410,15.2,60.0,19.0,-9999.0,'11111222,11111222,99999999' 
ADCP,ioos:station:wmo:42890:1,2014-06-02T11:22:00Z,27.6250,-90.4410,15.2,62.0,18.8,-9999.0,'11111222,11111222,99999999' 
ADCP,ioos:station:wmo:42890:1,2014-06-02T11:42:00Z,27.6250,-90.4410,15.2,69.0,18.3,-9999.0,'11111222,11111222,99999999' 
ADCP,ioos:station:wmo:42890:1,2014-06-02T12:02:00Z,27.6250,-90.4410,15.2,71.0,21.4,-9999.0,'11111222,11111222,99999999' 
ADCP,ioos:station:wmo:42890:1,2014-06-02T12:22:00Z,27.6250,-90.4410,15.2,84.0,19.5,-9999.0,'11111222,11111222,99999999' 
ADCP,ioos:station:wmo:42890:1,2014-06-02T12:42:00Z,27.6250,-90.4410,15.2,99.0,17.7,-99999.0,'1111122,1111122,1199999999' 
ADCP,ioos:station:wmo:42890:1,2014-06-02T13:02:00Z,27.6250,-90.4410,15.2,106.0,17.5,-9999.0,'11111222,11111222,99999999' 
ADCP,ioos:station:wmo:42890:1,2014-06-02T13:22:00Z,27.6250,-90.4410,15.2,106.0,18.8,-9999.0,'11111222,11111222,99999999' 
ADCP,ioos:station:wmo:42890:1,2014-06-02T13:42:00Z,27.6250,-90.4410,15.2,96.0,21.6,-99999.0,'1111122,1111122,1199999999' 
ADCP,ioos:station:wmo:42890:1,2014-06-02T14:02:00Z,27.6250,-90.4410,15.2,107.0,19.2,-9999.0,'11111222,11111222,99999999' 
ADCP,ioos:station:wmo:42890:1,2014-06-02T14:22:00Z,27.6250,-90.4410,15.2,108.0,20.4,-9999.0,'11111222,11111222,99999999' 
ADCP,ioos:station:wmo:42890:1,2014-06-02T14:42:00Z,27.6250,-90.4410,15.2,110.0,21.0,-99999.0,'1111122,1111122,1199999999' 
ADCP,ioos:station:wmo:42890:1,2014-06-02T15:02:00Z,27.6250,-90.4410,15.2,116.0,20.1,-9999.0,'11111222,11111222,99999999' 
ADCP,ioos:station:wmo:42890:1,2014-06-02T15:22:00Z,27.6250,-90.4410,15.2,124.0,19.9,-9999.0,'11111222,11111222,99999999' 
ADCP,ioos:station:wmo:42890:1,2014-06-02T15:42:00Z,27.6250,-90.4410,15.2,122.0,20.4,-99999.0,'1111122,1111122,1199999999' 
ADCP,ioos:station:wmo:42890:1,2014-06-02T16:02:00Z,27.6250,-90.4410,15.2,121.0,20.0,-9999.0,'11111222,11111222,99999999' 
ADCP,ioos:station:wmo:42890:1,2014-06-02T16:22:00Z,27.6250,-90.4410,15.2,124.0,19.5,-9999.0,'11111222,11111222,99999999' 
ADCP,ioos:station:wmo:42890:1,2014-06-02T16:42:00Z,27.6250,-90.4410,15.2,124.0,19.7,-99999.0,'1111122,1111122,1199999999' 
ADCP,ioos:station:wmo:42890:1,2014-06-02T17:02:00Z,27.6250,-90.4410,15.2,117.0,20.2,-9999.0,'11111222,11111222,99999999' 
ADCP,ioos:station:wmo:42890:1,2014-06-02T17:22:00Z,27.6250,-90.4410,15.2,117.0,18.3,-9999.0,'11111222,11111222,99999999' 
ADCP,ioos:station:wmo:42890:1,2014-06-02T17:42:00Z,27.6250,-90.4410,15.2,109.0,20.0,-99999.0,'1111122,1111122,1199999999' 
ADCP,ioos:station:wmo:42890:1,2014-06-02T18:02:00Z,27.6250,-90.4410,15.2,117.0,17.4,-9999.0,'11111222,11111222,99999999' 
ADCP,ioos:station:wmo:42890:1,2014-06-02T18:22:00Z,27.6250,-90.4410,15.2,116.0,16.0,-9999.0,'11111222,11111222,99999999' 
ADCP,ioos:station:wmo:42890:1,2014-06-02T18:42:00Z,27.6250,-90.4410,15.2,110.0,13.5,-99999.0,'1111122,1111122,1199999999' 
ADCP,ioos:station:wmo:42890:1,2014-06-02T19:02:00Z,27.6250,-90.4410,15.2,114.0,13.7,-9999.0,'11111222,11111222,99999999' 
ADCP,ioos:station:wmo:42890:1,2014-06-02T19:22:00Z,27.6250,-90.4410,15.2,129.0,10.3,-9999.0,'11111222,11111222,99999999' 
ADCP,ioos:station:wmo:42890:1,2014-06-02T19:42:00Z,27.6250,-90.4410,15.2,118.0,9.4,-99999.0,'1111122,1111122,1199999999' 
ADCP,ioos:station:wmo:42890:1,2014-06-02T20:02:00Z,27.6250,-90.4410,15.2,124.0,8.3,-9999.0,'11133222,11111222,99999999' 
ADCP,ioos:station:wmo:42890:1,2014-06-02T20:22:00Z,27.6250,-90.4410,15.2,109.0,7.2,-9999.0,'11133222,11111222,99999999' 
ADCP,ioos:station:wmo:42890:1,2014-06-02T20:42:00Z,27.6250,-90.4410,15.2,92.0,6.8,-99999.0,'1111122,1111122,1199999999' 
ADCP,ioos:station:wmo:42890:1,2014-06-02T21:02:00Z,27.6250,-90.4410,15.2,78.0,5.5,-9999.0,'11133222,11111222,99999999' 
ADCP,ioos:station:wmo:42890:1,2014-06-02T21:22:00Z,27.6250,-90.4410,15.2,76.0,6.1,-9999.0,'11133222,11111222,99999999' 
ADCP,ioos:station:wmo:42890:1,2014-06-02T21:42:00Z,27.6250,-90.4410,15.2,63.0,6.6,-99999.0,'1111122,1111122,1199999999' 
ADCP,ioos:station:wmo:42890:1,2014-06-02T22:02:00Z,27.6250,-90.4410,15.2,48.0,7.4,-9999.0,'11133222,11111222,99999999' 
ADCP,ioos:station:wmo:42890:1,2014-06-02T22:22:00Z,27.6250,-90.4410,15.2,42.0,9.6,-9999.0,'11133222,11111222,99999999' 
ADCP,ioos:station:wmo:42890:1,2014-06-02T22:42:00Z,27.6250,-90.4410,15.2,46.0,10.6,-9999.0,'11111222,11111222,99999999' 
ADCP,ioos:station:wmo:42890:1,2014-06-02T23:02:00Z,27.6250,-90.4410,15.2,46.0,13.2,-9999.0,'11111222,11111222,99999999' 
ADCP,ioos:station:wmo:42890:1,2014-06-02T23:22:00Z,27.6250,-90.4410,15.2,52.0,13.4,-9999.0,'11111222,11111222,99999999' 
ADCP,ioos:station:wmo:42890:1,2014-06-02T23:42:00Z,27.6250,-90.4410,15.2,50.0,14.1,-99999.0,'1111122,1111122,1199999999' 
ADCP,ioos:station:wmo:42890:1,2014-06-03T00:02:00Z,27.6250,-90.4410,15.2,52.0,14.3,-9999.0,'11111222,11111222,99999999' 
ADCP,ioos:station:wmo:42890:1,2014-06-03T00:22:00Z,27.6250,-90.4410,15.2,58.0,15.8,-9999.0,'11111222,11111222,99999999' 
ADCP,ioos:station:wmo:42890:1,2014-06-03T00:42:00Z,27.6250,-90.4410,15.2,63.0,15.5,-99999.0,'1111122,1111122,1199999999' 
ADCP,ioos:station:wmo:42890:1,2014-06-03T01:02:00Z,27.6250,-90.4410,15.2,54.0,11.9,-9999.0,'11111222,11111222,99999999' 
ADCP,ioos:station:wmo:42890:1,2014-06-03T01:22:00Z,27.6250,-90.4410,15.2,54.0,13.1,-9999.0,'11111222,11111222,99999999' 
ADCP,ioos:station:wmo:42890:1,2014-06-03T01:42:00Z,27.6250,-90.4410,15.2,65.0,16.6,-99999.0,'1111122,1111122,1199999999' 
ADCP,ioos:station:wmo:42890:1,2014-06-03T02:02:00Z,27.6250,-90.4410,15.2,61.0,15.1,-9999.0,'11111222,11111222,99999999' 
ADCP,ioos:station:wmo:42890:1,2014-06-03T02:22:00Z,27.6250,-90.4410,15.2,69.0,16.4,-9999.0,'11111222,11111222,99999999' 
ADCP,ioos:station:wmo:42890:1,2014-06-03T02:42:00Z,27.6250,-90.4410,15.2,69.0,16.8,-99999.0,'1111122,1111122,1199999999' 
ADCP,ioos:station:wmo:42890:1,2014-06-03T03:02:00Z,27.6250,-90.4410,15.2,65.0,16.4,-9999.0,'11111222,11111222,99999999' 
ADCP,ioos:station:wmo:42890:1,2014-06-03T03:22:00Z,27.6250,-90.4410,15.2,67.0,17.5,-9999.0,'11111222,11111222,99999999' 
ADCP,ioos:station:wmo:42890:1,2014-06-03T03:42:00Z,27.6250,-90.4410,15.2,69.0,16.9,-99999.0,'1111122,1111122,1199999999' 
ADCP,ioos:station:wmo:42890:1,2014-06-03T04:02:00Z,27.6250,-90.4410,15.2,68.0,17.8,-9999.0,'11111222,11111222,99999999' 
ADCP,ioos:station:wmo:42890:1,2014-06-03T04:22:00Z,27.6250,-90.4410,15.2,72.0,16.8,-9999.0,'11111222,11111222,99999999' 
ADCP,ioos:station:wmo:42890:1,2014-06-03T04:42:00Z,27.6250,-90.4410,15.2,64.0,20.7,-99999.0,'1111122,1111122,1199999999' 
ADCP,ioos:station:wmo:42890:1,2014-06-03T05:02:00Z,27.6250,-90.4410,15.2,65.0,24.3,-9999.0,'11111222,11111222,99999999' 
ADCP,ioos:station:wmo:42890:1,2014-06-03T05:22:00Z,27.6250,-90.4410,15.2,68.0,25.8,-9999.0,'11111222,11111222,99999999' 
ADCP,ioos:station:wmo:42890:1,2014-06-03T05:42:00Z,27.6250,-90.4410,15.2,74.0,24.7,-99999.0,'1111122,1111122,1199999999' 
ADCP,ioos:station:wmo:42890:1,2014-06-03T06:02:00Z,27.6250,-90.4410,15.2,77.0,23.7,-9999.0,'11111222,11111222,99999999' 
ADCP,ioos:station:wmo:42890:1,2014-06-03T06:22:00Z,27.6250,-90.4410,15.2,78.0,23.7,-9999.0,'11111222,11111222,99999999' 
ADCP,ioos:station:wmo:42890:1,2014-06-03T06:42:00Z,27.6250,-90.4410,15.2,75.0,22.5,-99999.0,'1111122,1111122,1199999999' 
ADCP,ioos:station:wmo:42890:1,2014-06-03T07:02:00Z,27.6250,-90.4410,15.2,73.0,22.1,-9999.0,'11111222,11111222,99999999' 
ADCP,ioos:station:wmo:42890:1,2014-06-03T07:22:00Z,27.6250,-90.4410,15.2,74.0,21.6,-9999.0,'11111222,11111222,99999999' 
ADCP,ioos:station:wmo:42890:1,2014-06-03T07:42:00Z,27.6250,-90.4410,15.2,75.0,21.0,-99999.0,'1111122,1111122,1199999999' 
ADCP,ioos:station:wmo:42890:1,2014-06-03T08:02:00Z,27.6250,-90.4410,15.2,76.0,21.1,-9999.0,'11111222,11111222,99999999' 
ADCP,ioos:station:wmo:42890:1,2014-06-03T08:22:00Z,27.6250,-90.4410,15.2,80.0,19.9,-9999.0,'11111222,11111222,99999999' 
ADCP,ioos:station:wmo:42890:1,2014-06-03T08:42:00Z,27.6250,-90.4410,15.2,78.0,19.4,-99999.0,'1111122,1111122,1199999999' 
ADCP,ioos:station:wmo:42890:1,2014-06-03T09:02:00Z,27.6250,-90.4410,15.2,74.0,17.8,-9999.0,'11111222,11111222,99999999' 
ADCP,ioos:station:wmo:42890:1,2014-06-03T09:22:00Z,27.6250,-90.4410,15.2,74.0,18.5,-9999.0,'11111222,11111222,99999999' 
ADCP,ioos:station:wmo:42890:1,2014-06-03T09:42:00Z,27.6250,-90.4410,15.2,93.0,19.9,-99999.0,'1111122,1111122,1199999999' 
ADCP,ioos:station:wmo:42890:1,2014-06-03T10:02:00Z,27.6250,-90.4410,15.2,105.0,21.9,-9999.0,'11111222,11111222,99999999' 
ADCP,ioos:station:wmo:42890:1,2014-06-03T10:22:00Z,27.6250,-90.4410,15.2,119.0,18.8,-9999.0,'11111222,11111222,99999999' 
ADCP,ioos:station:wmo:42890:1,2014-06-03T10:42:00Z,27.6250,-90.4410,15.2,121.0,19.9,-99999.0,'1111122,1111122,1199999999' 
ADCP,ioos:station:wmo:42890:1,2014-06-03T11:02:00Z,27.6250,-90.4410,15.2,122.0,21.2,-9999.0,'11111222,11111222,99999999' 
ADCP,ioos:station:wmo:42890:1,2014-06-03T11:22:00Z,27.6250,-90.4410,15.2,111.0,17.3,-9999.0,'11111222,11111222,99999999' 
ADCP,ioos:station:wmo:42890:1,2014-06-03T11:42:00Z,27.6250,-90.4410,15.2,99.0,17.5,-99999.0,'1111122,1111122,1199999999' 
ADCP,ioos:station:wmo:42890:1,2014-06-03T12:02:00Z,27.6250,-90.4410,15.2,97.0,21.3,-9999.0,'11111222,11111222,99999999' 
ADCP,ioos:station:wmo:42890:1,2014-06-03T12:22:00Z,27.6250,-90.4410,15.2,98.0,22.3,-9999.0,'11111222,11111222,99999999' 
ADCP,ioos:station:wmo:42890:1,2014-06-03T12:42:00Z,27.6250,-90.4410,15.2,101.0,22.2,-99999.0,'1111122,1111122,1199999999' 
ADCP,ioos:station:wmo:42890:1,2014-06-03T13:02:00Z,27.6250,-90.4410,15.2,104.0,23.3,-9999.0,'11111222,11111222,99999999' 
ADCP,ioos:station:wmo:42890:1,2014-06-03T13:22:00Z,27.6250,-90.4410,15.2,113.0,23.3,-9999.0,'11111222,11111222,99999999' 
ADCP,ioos:station:wmo:42890:1,2014-06-03T13:42:00Z,27.6250,-90.4410,15.2,111.0,24.6,-99999.0,'1111122,1111122,1199999999' 
ADCP,ioos:station:wmo:42890:1,2014-06-03T14:02:00Z,27.6250,-90.4410,15.2,116.0,25.3,-9999.0,'11111222,11111222,99999999' 
ADCP,ioos:station:wmo:42890:1,2014-06-03T14:22:00Z,27.6250,-90.4410,15.2,119.0,25.6,-9999.0,'11111222,11111222,99999999' 
ADCP,ioos:station:wmo:42890:1,2014-06-03T14:42:00Z,27.6250,-90.4410,15.2,125.0,23.0,-99999.0,'1111122,1111122,1199999999' 
ADCP,ioos:station:wmo:42890:1,2014-06-03T15:02:00Z,27.6250,-90.4410,15.2,134.0,23.9,-9999.0,'11111222,11111222,99999999' 
ADCP,ioos:station:wmo:42890:1,2014-06-03T15:22:00Z,27.6250,-90.4410,15.2,134.0,26.9,-9999.0,'11111222,11111222,99999999' 
ADCP,ioos:station:wmo:42890:1,2014-06-03T15:42:00Z,27.6250,-90.4410,15.2,133.0,26.0,-99999.0,'1111122,1111122,1199999999' 
ADCP,ioos:station:wmo:42890:1,2014-06-03T16:02:00Z,27.6250,-90.4410,15.2,131.0,26.7,-9999.0,'11111222,11111222,99999999' 
ADCP,ioos:station:wmo:42890:1,2014-06-03T16:22:00Z,27.6250,-90.4410,15.2,137.0,23.8,-9999.0,'11111222,11111222,99999999' 
ADCP,ioos:station:wmo:42890:1,2014-06-03T16:42:00Z,27.6250,-90.4410,15.2,133.0,28.0,-99999.0,'1111122,1111122,1199999999' 
ADCP,ioos:station:wmo:42890:1,2014-06-03T17:02:00Z,27.6250,-90.4410,15.2,139.0,25.8,-9999.0,'11111222,11111222,99999999' 